Hourly Data Report for September 19, 2017

All times are specified in Local Standard Time (LST). Add 1 hour to adjust for Daylight Saving Time where and when it is observed.

MIRAMICHI RCS
NEW BRUNSWICK

47°00'34.000" N
65°27'54.000" W
33.00 m
8100989
71744
ACQ

Download Data

Hourly Data (September 2017)
Hourly Data Report for September 19, 2017
Temp Definition
°C
Dew Point Temp Definition
°C
Rel Hum Definition
%
Wind Dir Definition
10's deg

Wind Spd Definition
km/h
Visibility Definition
km
Stn Press Definition
kPa
Hmdx Definition


Wind Chill Definition


Weather Definition


TIME
00:00 15.3 15.0 99 5 2   101.99     LegendNANA
01:00 15.3 15.1 99   0   101.99     LegendNANA
02:00 15.3 15.0 99   0   101.95     LegendNANA
03:00 15.2 15.0 99   0   101.92     LegendNANA
04:00 15.3 15.1 99   0   101.92     LegendNANA
05:00 15.4 15.1 98   0   101.93     LegendNANA
06:00 15.6 15.3 98   0   101.96     LegendNANA
07:00 16.4 16.0 98 20 6   101.98     LegendNANA
08:00 17.1 16.6 97 19 6   101.96     LegendNANA
09:00 18.7 16.9 90 15 9   101.92     LegendNANA
10:00 19.5 16.3 81 20 12   101.95     LegendNANA
11:00 20.2 17.0 82 21 14   101.91 25   LegendNANA
12:00 20.0 16.6 81 21 15   101.89 25   LegendNANA
13:00 20.3 16.7 80 22 12   101.82 25   LegendNANA
14:00 20.9 16.6 77 24 7   101.75 26   LegendNANA
15:00 21.9 16.8 73 23 11   101.70 27   LegendNANA
16:00 21.9 17.1 74 24 7   101.67 27   LegendNANA
17:00 22.5 17.4 73 25 5   101.64 28   LegendNANA
18:00 21.6 17.2 76 17 5   101.61 27   LegendNANA
19:00 19.3 17.1 87 17 7   101.62     LegendNANA
20:00 18.3 17.0 92 22 3   101.62     LegendNANA
21:00 17.3 16.6 96 26 5   101.63     LegendNANA
22:00 17.0 16.3 96   0   101.63     LegendNANA
23:00 16.4 15.5 95 17 3   101.57     LegendNANA

Notes on Data Quality.

Legend

  • E = Estimated
  • M = Missing
  • NA = Not Available
  • ‡ = Partner data that is not subject to review by the National Climate Archives
Date modified: